Regional Weather Roundup
Issued by NWS Bismarck, ND

Home | Current Version | Previous Version | Text Only | Print | Product List | Glossary On
Versions: 1 2 3 4 5 6 7 8 9 10 11 12 13 14 15 16 17 18 19 20 21 22 23 24 25 26 27 28 29 30 31 32 33 34 35 36 37 38 39 40 41 42 43 44 45 46 47 48 49 50
000
ASUS43 KBIS 241610
RWRBIS

NWR BROADCAST TEXT
NATIONAL WEATHER SERVICE BISMARCK ND
1100 AM CDT FRI MAR 24 2017

NOTE: "FAIR" INDICATES FEW OR NO CLOUDS BELOW 12,000 FEET WITH NO
SIGNIFICANT WEATHER AND/OR OBSTRUCTIONS TO VISIBILITY.


CITY           SKY/WX    TMP DP  RH WIND       PRES   REMARKS
WILLISTON      FAIR      40  30  67 SE7       30.12R
MINOT          CLOUDY    33  28  81 E10       30.16R
MINOT AFB      FAIR      31  26  79 SE12      30.16R
BISMARCK       FAIR      36  31  82 E7        30.18R
DICKINSON      FAIR      39  31  72 SE7       30.09R
GARRISON         N/A     32  27  81 E10       30.15R
HETTINGER ARPT FOG       35  34  96 VRB3      30.13R VSB 1/4
JAMESTOWN      FAIR      34  27  75 NE10      30.15R
HAZEN          PTSUNNY   36  30  80 E9        30.17R
MANDAN         PTSUNNY   34  32  93 NE8       30.16R
RUGBY            N/A     28  25  86 NE13      30.18R WCI  18
STANLEY        CLOUDY    32  32 100 E7        30.16R
TIOGA          FAIR      32  32 100 E8        30.14R
WATFORD CITY   FAIR      39  30  70 SE10      30.12R
$$

CITY           SKY/WX    TMP DP  RH WIND       PRES   REMARKS
GRAND FORKS    FAIR      34  29  82 N16       30.17R
GRAND FORKS AF FAIR      34  27  77 N16G22    30.18R
DEVILS LAKE    FAIR      30  24  78 NE15      30.18R WCI  19
FARGO          CLOUDY    37  33  85 N16       30.14R
CAVALIER         N/A     30  27  86 N12G18    30.20R
GRAFTON        CLOUDY    32  28  86 N14G20    30.21R
GWINNER        CLOUDY    34  34 100 MISG      30.14R FOG
LANGDON        CLOUDY    30  27  86 N14       30.18R WCI  20
ROLLA          FAIR      27  25  93 NE13      30.17S WCI  16
$$

CITY           SKY/WX    TMP DP  RH WIND       PRES   REMARKS
ABERDEEN       CLOUDY    37  30  75 NE12      30.12R
MOBRIDGE       FAIR      43  31  62 E6        30.10R
BUFFALO          N/A     50  41  71 NW6       30.04R
RAPID CITY     FAIR      52  36  54 NW9       30.11R
GLASGOW        FAIR      40  33  76 SE8       30.06S
SIDNEY         FAIR      41  35  79 S6        30.11R
WOLF POINT     FAIR      39  33  79 E3        30.09S
GLENDIVE       FAIR      44  33  65 SE5       30.10R
MILES CITY     FAIR      44  37  76 S6        30.09F
BAKER          FAIR      46  34  62 NW5       30.11R
$$

CITY           SKY/WX    TMP DP  RH WIND       PRES   REMARKS
BILLINGS       FAIR      42  33  70 SW13      30.06F
GREAT FALLS    FAIR      46  22  38 S12       29.95F
REGINA         MOSUNNY   34  28  80 SE13      30.12S
ESTEVAN        SUNNY     30  27  86 E9        30.15R
$$




USA.gov is the U.S. government's official web portal to all federal, state and local government web resources and services.